contact:dominique.lefevre@mio.osupytheas.fr, maurice.libes@osupytheas.fr, didier.mallarino@osupytheas.fr
Project:EMSO http://www.emso-fr.org/EMSO-France
Depth: 2436.0 m
Title:EMSO Ligure Ouest : Data MII capteur MICROCAT
DateTime_Computer,Latitude,Longitude,Temperature,Conductivity,Pressure,DateTime_Instrument
DateTime_Computer,Latitude,Longitude,degC,S m-1,dbar,DateTime_Instrument
2020-02-28T00:00:46Z,42.805,6.029,13.2996,4.60040,2469.993,2020-2-28T02:01:22Z
2020-02-28T00:03:49Z,42.805,6.029,13.3014,4.60031,2469.97,2020-2-28T02:04:25Z
2020-02-28T00:06:52Z,42.805,6.029,13.3006,4.60034,2469.937,2020-2-28T02:07:28Z
2020-02-28T00:09:56Z,42.805,6.029,13.2991,4.60013,2469.97,2020-2-28T02:10:31Z
2020-02-28T00:12:59Z,42.805,6.029,13.2993,4.60017,2470.007,2020-2-28T02:13:35Z
2020-02-28T00:16:02Z,42.805,6.029,13.3000,4.60035,2469.984,2020-2-28T02:16:38Z
2020-02-28T00:19:05Z,42.805,6.029,13.2991,4.60038,2470.017,2020-2-28T02:19:41Z
2020-02-28T00:22:09Z,42.805,6.029,13.2986,4.60034,2469.984,2020-2-28T02:22:44Z
2020-02-28T00:25:12Z,42.805,6.029,13.2996,4.60014,2469.984,2020-2-28T02:25:48Z
2020-02-28T00:28:15Z,42.805,6.029,13.3004,4.60006,2469.984,2020-2-28T02:28:51Z
2020-02-28T00:31:18Z,42.805,6.029,13.2998,4.60038,2469.947,2020-2-28T02:31:54Z
2020-02-28T00:34:22Z,42.805,6.029,13.3006,4.60046,2469.984,2020-2-28T02:34:57Z
2020-02-28T00:37:25Z,42.805,6.029,13.3022,4.60045,2469.984,2020-2-28T02:38:01Z
2020-02-28T00:40:29Z,42.805,6.029,13.2988,4.60033,2469.96,2020-2-28T02:41:04Z
2020-02-28T00:43:32Z,42.805,6.029,13.3019,4.60044,2469.97,2020-2-28T02:44:08Z
2020-02-28T00:46:35Z,42.805,6.029,13.2999,4.60043,2469.947,2020-2-28T02:47:11Z
2020-02-28T00:49:38Z,42.805,6.029,13.3007,4.60051,2469.97,2020-2-28T02:50:14Z
2020-02-28T00:52:41Z,42.805,6.029,13.3020,4.60033,2469.984,2020-2-28T02:53:17Z
2020-02-28T00:55:45Z,42.805,6.029,13.2998,4.60044,2469.96,2020-2-28T02:56:20Z
2020-02-28T00:58:48Z,42.805,6.029,13.2992,4.60025,2469.947,2020-2-28T02:59:24Z
2020-02-28T01:01:51Z,42.805,6.029,13.3008,4.60017,2469.97,2020-2-28T03:02:27Z
2020-02-28T01:04:54Z,42.805,6.029,13.3004,4.60046,2469.993,2020-2-28T03:05:30Z
2020-02-28T01:07:58Z,42.805,6.029,13.2996,4.60029,2469.97,2020-2-28T03:08:33Z
2020-02-28T01:11:01Z,42.805,6.029,13.2990,4.60044,2469.96,2020-2-28T03:11:37Z
2020-02-28T01:14:04Z,42.805,6.029,13.3010,4.60041,2469.96,2020-2-28T03:14:40Z
2020-02-28T01:17:07Z,42.805,6.029,13.3003,4.60047,2469.96,2020-2-28T03:17:43Z
2020-02-28T01:20:10Z,42.805,6.029,13.2991,4.60015,2469.96,2020-2-28T03:20:46Z
2020-02-28T01:23:13Z,42.805,6.029,13.2985,4.59624,2469.97,2020-2-28T03:23:49Z
2020-02-28T01:26:17Z,42.805,6.029,13.3000,4.60044,2469.984,2020-2-28T03:26:53Z
2020-02-28T01:29:20Z,42.805,6.029,13.2998,4.60029,2469.947,2020-2-28T03:29:56Z
2020-02-28T01:32:23Z,42.805,6.029,13.3002,4.60033,2469.97,2020-2-28T03:32:59Z
2020-02-28T01:35:26Z,42.805,6.029,13.3019,4.60048,2469.96,2020-2-28T03:36:02Z
2020-02-28T01:38:30Z,42.805,6.029,13.3022,4.60049,2469.947,2020-2-28T03:39:06Z
2020-02-28T01:41:33Z,42.805,6.029,13.2994,4.60052,2469.96,2020-2-28T03:42:09Z
2020-02-28T01:44:36Z,42.805,6.029,13.3011,4.60021,2469.937,2020-2-28T03:45:12Z
2020-02-28T01:47:39Z,42.805,6.029,13.2989,4.60056,2469.97,2020-2-28T03:48:15Z
2020-02-28T01:50:42Z,42.805,6.029,13.3003,4.60002,2469.886,2020-2-28T03:51:18Z
2020-02-28T01:53:46Z,42.805,6.029,13.3000,4.59994,2469.923,2020-2-28T03:54:22Z
2020-02-28T01:56:49Z,42.805,6.029,13.2994,4.60024,2469.937,2020-2-28T03:57:25Z
2020-02-28T01:59:52Z,42.805,6.029,13.2999,4.60022,2469.947,2020-2-28T04:00:28Z
2020-02-28T02:02:55Z,42.805,6.029,13.3004,4.59999,2469.947,2020-2-28T04:03:31Z
2020-02-28T02:05:58Z,42.805,6.029,13.2991,4.60007,2469.923,2020-2-28T04:06:34Z
2020-02-28T02:09:02Z,42.805,6.029,13.3005,4.59992,2469.96,2020-2-28T04:09:37Z
2020-02-28T02:12:05Z,42.805,6.029,13.2979,4.59994,2469.923,2020-2-28T04:12:41Z
2020-02-28T02:15:08Z,42.805,6.029,13.2979,4.60029,2469.947,2020-2-28T04:15:44Z
2020-02-28T02:18:11Z,42.805,6.029,13.2996,4.60026,2469.947,2020-2-28T04:18:47Z
2020-02-28T02:21:14Z,42.805,6.029,13.2992,4.60042,2469.947,2020-2-28T04:21:50Z
2020-02-28T02:24:18Z,42.805,6.029,13.3018,4.60045,2469.923,2020-2-28T04:24:53Z
2020-02-28T02:27:21Z,42.805,6.029,13.3011,4.60042,2469.923,2020-2-28T04:27:57Z
2020-02-28T02:30:24Z,42.805,6.029,13.3012,4.60034,2469.937,2020-2-28T04:31:00Z
2020-02-28T02:33:27Z,42.805,6.029,13.2990,4.60061,2469.9,2020-2-28T04:34:03Z
2020-02-28T02:36:31Z,42.805,6.029,13.2982,4.60049,2469.923,2020-2-28T04:37:06Z
2020-02-28T02:39:34Z,42.805,6.029,13.3023,4.60052,2469.97,2020-2-28T04:40:10Z
2020-02-28T02:42:37Z,42.805,6.029,13.3030,4.60091,2469.937,2020-2-28T04:43:13Z
2020-02-28T02:45:40Z,42.805,6.029,13.3033,4.60068,2469.914,2020-2-28T04:46:16Z
2020-02-28T02:48:43Z,42.805,6.029,13.3025,4.60055,2469.96,2020-2-28T04:49:19Z
2020-02-28T02:51:47Z,42.805,6.029,13.3021,4.60015,2469.914,2020-2-28T04:52:23Z
2020-02-28T02:54:50Z,42.805,6.029,13.2995,4.60032,2469.923,2020-2-28T04:55:26Z
2020-02-28T02:57:53Z,42.805,6.029,13.2998,4.60021,2469.9,2020-2-28T04:58:29Z
2020-02-28T03:00:57Z,42.805,6.029,13.3006,4.60040,2469.937,2020-2-28T05:01:32Z
2020-02-28T03:04:00Z,42.805,6.029,13.3022,4.60092,2469.923,2020-2-28T05:04:36Z
2020-02-28T03:07:03Z,42.805,6.029,13.3026,4.60020,2469.937,2020-2-28T05:07:39Z
2020-02-28T03:10:06Z,42.805,6.029,13.3034,4.60035,2469.937,2020-2-28T05:10:42Z
2020-02-28T03:13:09Z,42.805,6.029,13.2990,4.60078,2469.914,2020-2-28T05:13:45Z
2020-02-28T03:16:13Z,42.805,6.029,13.3004,4.59997,2469.937,2020-2-28T05:16:49Z
2020-02-28T03:19:16Z,42.805,6.029,13.3023,4.60046,2469.89,2020-2-28T05:19:52Z
2020-02-28T03:22:19Z,42.805,6.029,13.3019,4.60041,2469.9,2020-2-28T05:22:55Z
2020-02-28T03:25:22Z,42.805,6.029,13.3029,4.60027,2469.914,2020-2-28T05:25:58Z
2020-02-28T03:28:25Z,42.805,6.029,13.3030,4.60052,2469.9,2020-2-28T05:29:01Z
2020-02-28T03:31:28Z,42.805,6.029,13.3031,4.60056,2469.9,2020-2-28T05:32:04Z
2020-02-28T03:34:32Z,42.805,6.029,13.3020,4.60025,2469.937,2020-2-28T05:35:08Z
2020-02-28T03:37:35Z,42.805,6.029,13.3023,4.60003,2469.89,2020-2-28T05:38:11Z
2020-02-28T03:40:38Z,42.805,6.029,13.3025,4.60041,2469.9,2020-2-28T05:41:14Z
2020-02-28T03:43:41Z,42.805,6.029,13.3024,4.60043,2469.923,2020-2-28T05:44:17Z
2020-02-28T03:46:44Z,42.805,6.029,13.2994,4.60052,2469.937,2020-2-28T05:47:20Z
2020-02-28T03:49:48Z,42.805,6.029,13.3016,4.60034,2469.9,2020-2-28T05:50:24Z
2020-02-28T03:52:51Z,42.805,6.029,13.2978,4.60036,2469.9,2020-2-28T05:53:27Z
2020-02-28T03:55:54Z,42.805,6.029,13.2991,4.60038,2469.937,2020-2-28T05:56:30Z
2020-02-28T03:58:57Z,42.805,6.029,13.3006,4.60049,2469.876,2020-2-28T05:59:33Z
2020-02-28T04:02:00Z,42.805,6.029,13.3005,4.60000,2469.937,2020-2-28T06:02:36Z
2020-02-28T04:05:04Z,42.805,6.029,13.3008,4.60044,2469.9,2020-2-28T06:05:40Z
2020-02-28T04:08:07Z,42.805,6.029,13.3026,4.60045,2469.876,2020-2-28T06:08:43Z
2020-02-28T04:11:10Z,42.805,6.029,13.2989,4.60024,2469.9,2020-2-28T06:11:46Z
2020-02-28T04:14:13Z,42.805,6.029,13.2978,4.60044,2469.9,2020-2-28T06:14:49Z
2020-02-28T04:17:16Z,42.805,6.029,13.3009,4.59996,2469.9,2020-2-28T06:17:52Z
2020-02-28T04:20:20Z,42.805,6.029,13.2993,4.60013,2469.9,2020-2-28T06:20:55Z
2020-02-28T04:23:23Z,42.805,6.029,13.2983,4.60011,2469.914,2020-2-28T06:23:59Z
2020-02-28T04:26:26Z,42.805,6.029,13.2988,4.60014,2469.9,2020-2-28T06:27:02Z
2020-02-28T04:29:29Z,42.805,6.029,13.3019,4.60031,2469.937,2020-2-28T06:30:05Z
2020-02-28T04:32:32Z,42.805,6.029,13.3012,4.60037,2469.9,2020-2-28T06:33:08Z
2020-02-28T04:35:36Z,42.805,6.029,13.3006,4.60053,2469.9,2020-2-28T06:36:11Z
2020-02-28T04:38:39Z,42.805,6.029,13.3015,4.60034,2469.9,2020-2-28T06:39:15Z
2020-02-28T04:41:42Z,42.805,6.029,13.2986,4.60035,2469.914,2020-2-28T06:42:18Z
2020-02-28T04:44:45Z,42.805,6.029,13.2990,4.60017,2469.9,2020-2-28T06:45:21Z
2020-02-28T04:47:48Z,42.805,6.029,13.3000,4.60014,2469.914,2020-2-28T06:48:24Z
2020-02-28T04:50:52Z,42.805,6.029,13.2996,4.60036,2469.937,2020-2-28T06:51:27Z
2020-02-28T04:53:55Z,42.805,6.029,13.2993,4.60041,2469.914,2020-2-28T06:54:31Z
2020-02-28T04:56:58Z,42.805,6.029,13.2984,4.60000,2469.937,2020-2-28T06:57:34Z
2020-02-28T05:00:01Z,42.805,6.029,13.2983,4.60021,2469.923,2020-2-28T07:00:37Z
2020-02-28T05:03:04Z,42.805,6.029,13.2980,4.60011,2469.914,2020-2-28T07:03:40Z
2020-02-28T05:06:08Z,42.805,6.029,13.2986,4.60026,2469.96,2020-2-28T07:06:43Z
2020-02-28T05:09:11Z,42.805,6.029,13.3008,4.60026,2469.937,2020-2-28T07:09:47Z
2020-02-28T05:12:14Z,42.805,6.029,13.3000,4.59999,2469.9,2020-2-28T07:12:50Z
2020-02-28T05:15:17Z,42.805,6.029,13.2990,4.60017,2469.923,2020-2-28T07:15:53Z
2020-02-28T05:18:20Z,42.805,6.029,13.2992,4.60033,2469.923,2020-2-28T07:18:56Z
2020-02-28T05:21:23Z,42.805,6.029,13.3014,4.60035,2469.914,2020-2-28T07:21:59Z
2020-02-28T05:24:27Z,42.805,6.029,13.3014,4.60025,2469.947,2020-2-28T07:25:03Z
2020-02-28T05:27:30Z,42.805,6.029,13.2991,4.60039,2469.937,2020-2-28T07:28:06Z
2020-02-28T05:30:33Z,42.805,6.029,13.2993,4.60040,2469.914,2020-2-28T07:31:09Z
2020-02-28T05:33:36Z,42.805,6.029,13.2994,4.60046,2469.937,2020-2-28T07:34:12Z
2020-02-28T05:36:40Z,42.805,6.029,13.3010,4.60015,2469.947,2020-2-28T07:37:15Z
2020-02-28T05:39:43Z,42.805,6.029,13.3010,4.60010,2469.937,2020-2-28T07:40:19Z
2020-02-28T05:42:46Z,42.805,6.029,13.2991,4.60036,2469.97,2020-2-28T07:43:22Z
2020-02-28T05:45:49Z,42.805,6.029,13.2987,4.60046,2469.947,2020-2-28T07:46:25Z
2020-02-28T05:48:52Z,42.805,6.029,13.3009,4.60007,2469.984,2020-2-28T07:49:28Z
2020-02-28T05:51:56Z,42.805,6.029,13.2991,4.60003,2469.947,2020-2-28T07:52:31Z
2020-02-28T05:54:59Z,42.805,6.029,13.2974,4.59999,2469.947,2020-2-28T07:55:35Z
2020-02-28T05:58:02Z,42.805,6.029,13.2976,4.60016,2469.96,2020-2-28T07:58:38Z
2020-02-28T06:01:05Z,42.805,6.029,13.2987,4.60020,2469.984,2020-2-28T08:01:41Z
2020-02-28T06:04:08Z,42.805,6.029,13.2981,4.60024,2469.984,2020-2-28T08:04:44Z
2020-02-28T06:07:12Z,42.805,6.029,13.2990,4.60015,2469.947,2020-2-28T08:07:48Z
2020-02-28T06:10:15Z,42.805,6.029,13.2979,4.60031,2469.947,2020-2-28T08:10:51Z
2020-02-28T06:13:18Z,42.805,6.029,13.3006,4.60031,2469.923,2020-2-28T08:13:54Z
2020-02-28T06:16:22Z,42.805,6.029,13.3002,4.60019,2469.947,2020-2-28T08:16:58Z
2020-02-28T06:19:25Z,42.805,6.029,13.2990,4.60034,2469.984,2020-2-28T08:20:01Z
2020-02-28T06:22:28Z,42.805,6.029,13.2983,4.60024,2469.97,2020-2-28T08:23:04Z
2020-02-28T06:25:31Z,42.805,6.029,13.2983,4.59995,2469.984,2020-2-28T08:26:07Z
2020-02-28T06:28:35Z,42.805,6.029,13.2979,4.59995,2469.937,2020-2-28T08:29:10Z
2020-02-28T06:31:38Z,42.805,6.029,13.2975,4.60000,2469.984,2020-2-28T08:32:14Z
2020-02-28T06:34:41Z,42.805,6.029,13.2969,4.59999,2469.97,2020-2-28T08:35:17Z
2020-02-28T06:37:44Z,42.805,6.029,13.2977,4.59995,2469.984,2020-2-28T08:38:20Z
2020-02-28T06:40:47Z,42.805,6.029,13.2991,4.60016,2469.984,2020-2-28T08:41:23Z
2020-02-28T06:43:51Z,42.805,6.029,13.2996,4.60024,2469.993,2020-2-28T08:44:26Z
2020-02-28T06:46:54Z,42.805,6.029,13.2979,4.60022,2470.007,2020-2-28T08:47:30Z
2020-02-28T06:49:57Z,42.805,6.029,13.2976,4.60006,2469.993,2020-2-28T08:50:33Z
2020-02-28T06:53:00Z,42.805,6.029,13.2973,4.60004,2470.03,2020-2-28T08:53:36Z
2020-02-28T06:56:03Z,42.805,6.029,13.2989,4.60012,2469.97,2020-2-28T08:56:39Z
2020-02-28T06:59:07Z,42.805,6.029,13.2974,4.60005,2469.97,2020-2-28T08:59:42Z
2020-02-28T07:02:10Z,42.805,6.029,13.2978,4.60017,2469.97,2020-2-28T09:02:46Z
2020-02-28T07:05:13Z,42.805,6.029,13.2977,4.60019,2469.993,2020-2-28T09:05:49Z
2020-02-28T07:08:16Z,42.805,6.029,13.2993,4.60036,2469.993,2020-2-28T09:08:52Z
2020-02-28T07:11:19Z,42.805,6.029,13.2983,4.60024,2470.007,2020-2-28T09:11:55Z
2020-02-28T07:14:23Z,42.805,6.029,13.2986,4.60032,2469.993,2020-2-28T09:14:58Z
2020-02-28T07:17:26Z,42.805,6.029,13.2994,4.59999,2470.03,2020-2-28T09:18:02Z
2020-02-28T07:20:29Z,42.805,6.029,13.2987,4.60034,2469.993,2020-2-28T09:21:05Z
2020-02-28T07:23:32Z,42.805,6.029,13.2995,4.60012,2470.04,2020-2-28T09:24:08Z
2020-02-28T07:26:35Z,42.805,6.029,13.2976,4.59996,2470.053,2020-2-28T09:27:11Z
2020-02-28T07:29:39Z,42.805,6.029,13.2974,4.59993,2470.017,2020-2-28T09:30:15Z
2020-02-28T07:32:42Z,42.805,6.029,13.2977,4.60001,2470.03,2020-2-28T09:33:18Z
2020-02-28T07:35:45Z,42.805,6.029,13.2974,4.59981,2470.017,2020-2-28T09:36:21Z
2020-02-28T07:38:48Z,42.805,6.029,13.2977,4.60003,2470.053,2020-2-28T09:39:24Z
2020-02-28T07:41:52Z,42.805,6.029,13.2976,4.60005,2470.053,2020-2-28T09:42:27Z
2020-02-28T07:44:55Z,42.805,6.029,13.2988,4.60014,2470.053,2020-2-28T09:45:31Z
2020-02-28T07:47:58Z,42.805,6.029,13.2986,4.60003,2470.03,2020-2-28T09:48:34Z
2020-02-28T07:51:01Z,42.805,6.029,13.2977,4.59992,2470.04,2020-2-28T09:51:37Z
2020-02-28T07:54:04Z,42.805,6.029,13.2974,4.59993,2470.1,2020-2-28T09:54:40Z
2020-02-28T07:57:08Z,42.805,6.029,13.2979,4.59991,2470.04,2020-2-28T09:57:44Z
2020-02-28T08:00:11Z,42.805,6.029,13.2974,4.60002,2470.04,2020-2-28T10:00:47Z
2020-02-28T08:03:14Z,42.805,6.029,13.2975,4.60003,2470.087,2020-2-28T10:03:50Z
2020-02-28T08:06:17Z,42.805,6.029,13.2974,4.60001,2470.077,2020-2-28T10:06:53Z
2020-02-28T08:09:21Z,42.805,6.029,13.2979,4.60007,2470.077,2020-2-28T10:09:57Z
2020-02-28T08:12:24Z,42.805,6.029,13.2976,4.60020,2470.077,2020-2-28T10:13:00Z
2020-02-28T08:15:27Z,42.805,6.029,13.2974,4.59999,2470.063,2020-2-28T10:16:03Z
2020-02-28T08:18:30Z,42.805,6.029,13.2976,4.60013,2470.087,2020-2-28T10:19:06Z
2020-02-28T08:21:34Z,42.805,6.029,13.2973,4.59987,2470.063,2020-2-28T10:22:09Z
2020-02-28T08:24:37Z,42.805,6.029,13.2979,4.60001,2470.04,2020-2-28T10:25:13Z
2020-02-28T08:27:40Z,42.805,6.029,13.2979,4.59996,2470.077,2020-2-28T10:28:16Z
2020-02-28T08:30:43Z,42.805,6.029,13.2976,4.59995,2470.063,2020-2-28T10:31:19Z
2020-02-28T08:33:46Z,42.805,6.029,13.2982,4.60011,2470.1,2020-2-28T10:34:22Z
2020-02-28T08:36:50Z,42.805,6.029,13.2982,4.60032,2470.087,2020-2-28T10:37:26Z
2020-02-28T08:39:53Z,42.805,6.029,13.2998,4.60024,2470.063,2020-2-28T10:40:29Z
2020-02-28T08:42:56Z,42.805,6.029,13.2976,4.60009,2470.1,2020-2-28T10:43:32Z
2020-02-28T08:45:59Z,42.805,6.029,13.2979,4.60008,2470.1,2020-2-28T10:46:35Z
2020-02-28T08:49:03Z,42.805,6.029,13.2976,4.60005,2470.087,2020-2-28T10:49:38Z
2020-02-28T08:52:06Z,42.805,6.029,13.2986,4.59995,2470.077,2020-2-28T10:52:42Z
2020-02-28T08:55:09Z,42.805,6.029,13.2980,4.59999,2470.1,2020-2-28T10:55:45Z
2020-02-28T08:58:12Z,42.805,6.029,13.2983,4.60026,2470.133,2020-2-28T10:58:48Z
2020-02-28T09:01:15Z,42.805,6.029,13.2994,4.60012,2470.087,2020-2-28T11:01:51Z
2020-02-28T09:04:19Z,42.805,6.029,13.2985,4.60014,2470.087,2020-2-28T11:04:54Z
2020-02-28T09:07:22Z,42.805,6.029,13.2993,4.60024,2470.11,2020-2-28T11:07:58Z
2020-02-28T09:10:25Z,42.805,6.029,13.2979,4.60029,2470.133,2020-2-28T11:11:01Z
2020-02-28T09:13:28Z,42.805,6.029,13.2989,4.60022,2470.133,2020-2-28T11:14:04Z
2020-02-28T09:16:31Z,42.805,6.029,13.2979,4.60008,2470.133,2020-2-28T11:17:07Z
2020-02-28T09:19:35Z,42.805,6.029,13.2976,4.59996,2470.11,2020-2-28T11:20:11Z
2020-02-28T09:22:38Z,42.805,6.029,13.2976,4.59998,2470.096,2020-2-28T11:23:14Z
2020-02-28T09:25:41Z,42.805,6.029,13.2976,4.59986,2470.1,2020-2-28T11:26:17Z
2020-02-28T09:28:44Z,42.805,6.029,13.2979,4.59999,2470.11,2020-2-28T11:29:20Z
2020-02-28T09:31:47Z,42.805,6.029,13.2985,4.60020,2470.124,2020-2-28T11:32:23Z
2020-02-28T09:34:51Z,42.805,6.029,13.2998,4.60019,2470.087,2020-2-28T11:35:27Z
2020-02-28T09:37:54Z,42.805,6.029,13.2987,4.60018,2470.124,2020-2-28T11:38:30Z
2020-02-28T09:40:57Z,42.805,6.029,13.2978,4.60021,2470.11,2020-2-28T11:41:33Z
2020-02-28T09:44:00Z,42.805,6.029,13.2975,4.60006,2470.147,2020-2-28T11:44:36Z
2020-02-28T09:47:04Z,42.805,6.029,13.2982,4.60009,2470.124,2020-2-28T11:47:39Z
2020-02-28T09:50:07Z,42.805,6.029,13.2977,4.59999,2470.11,2020-2-28T11:50:43Z
2020-02-28T09:53:10Z,42.805,6.029,13.2974,4.59998,2470.1,2020-2-28T11:53:46Z
2020-02-28T09:56:13Z,42.805,6.029,13.2972,4.59994,2470.133,2020-2-28T11:56:49Z
2020-02-28T09:59:16Z,42.805,6.029,13.2979,4.59987,2470.11,2020-2-28T11:59:52Z
2020-02-28T10:02:20Z,42.805,6.029,13.2981,4.59993,2470.11,2020-2-28T12:02:55Z
2020-02-28T10:05:23Z,42.805,6.029,13.2977,4.60005,2470.11,2020-2-28T12:05:59Z
2020-02-28T10:08:26Z,42.805,6.029,13.2973,4.59984,2470.133,2020-2-28T12:09:02Z
2020-02-28T10:11:29Z,42.805,6.029,13.2974,4.59999,2470.133,2020-2-28T12:12:05Z
2020-02-28T10:14:32Z,42.805,6.029,13.2970,4.59988,2470.124,2020-2-28T12:15:08Z
2020-02-28T10:17:36Z,42.805,6.029,13.2974,4.59987,2470.171,2020-2-28T12:18:12Z
2020-02-28T10:20:39Z,42.805,6.029,13.2972,4.59996,2470.087,2020-2-28T12:21:15Z
2020-02-28T10:23:42Z,42.805,6.029,13.2974,4.60016,2470.147,2020-2-28T12:24:18Z
2020-02-28T10:26:46Z,42.805,6.029,13.2974,4.59986,2470.087,2020-2-28T12:27:21Z
2020-02-28T10:29:49Z,42.805,6.029,13.2983,4.60016,2470.11,2020-2-28T12:30:25Z
2020-02-28T10:32:52Z,42.805,6.029,13.2986,4.60016,2470.124,2020-2-28T12:33:28Z
2020-02-28T10:35:55Z,42.805,6.029,13.2989,4.60008,2470.077,2020-2-28T12:36:31Z
2020-02-28T10:38:58Z,42.805,6.029,13.2990,4.60021,2470.133,2020-2-28T12:39:34Z
2020-02-28T10:42:02Z,42.805,6.029,13.2972,4.60008,2470.133,2020-2-28T12:42:37Z
2020-02-28T10:45:05Z,42.805,6.029,13.2985,4.60032,2470.087,2020-2-28T12:45:41Z
2020-02-28T10:48:08Z,42.805,6.029,13.2998,4.60014,2470.077,2020-2-28T12:48:44Z
2020-02-28T10:51:11Z,42.805,6.029,13.2984,4.60036,2470.096,2020-2-28T12:51:47Z
2020-02-28T10:54:14Z,42.805,6.029,13.2981,4.60002,2470.1,2020-2-28T12:54:50Z
2020-02-28T10:57:18Z,42.805,6.029,13.2987,4.60003,2470.124,2020-2-28T12:57:53Z
2020-02-28T11:00:21Z,42.805,6.029,13.2979,4.60018,2470.087,2020-2-28T13:00:57Z
2020-02-28T11:03:24Z,42.805,6.029,13.2979,4.60015,2470.087,2020-2-28T13:04:00Z
2020-02-28T11:06:27Z,42.805,6.029,13.2990,4.60006,2470.1,2020-2-28T13:07:03Z
2020-02-28T11:09:30Z,42.805,6.029,13.2980,4.60019,2470.087,2020-2-28T13:10:06Z
2020-02-28T11:12:34Z,42.805,6.029,13.2974,4.60001,2470.1,2020-2-28T13:13:09Z
2020-02-28T11:15:37Z,42.805,6.029,13.2979,4.60009,2470.124,2020-2-28T13:16:13Z
2020-02-28T11:18:40Z,42.805,6.029,13.2976,4.60008,2470.124,2020-2-28T13:19:16Z
2020-02-28T11:21:43Z,42.805,6.029,13.2968,4.60020,2470.077,2020-2-28T13:22:19Z
2020-02-28T11:24:46Z,42.805,6.029,13.2992,4.60021,2470.077,2020-2-28T13:25:22Z
2020-02-28T11:27:50Z,42.805,6.029,13.2974,4.60007,2470.1,2020-2-28T13:28:25Z
2020-02-28T11:30:53Z,42.805,6.029,13.2979,4.60006,2470.087,2020-2-28T13:31:29Z
2020-02-28T11:33:56Z,42.805,6.029,13.2983,4.59992,2470.1,2020-2-28T13:34:32Z
2020-02-28T11:36:59Z,42.805,6.029,13.2982,4.60000,2470.077,2020-2-28T13:37:35Z
2020-02-28T11:40:02Z,42.805,6.029,13.2990,4.60022,2470.04,2020-2-28T13:40:38Z
2020-02-28T11:43:06Z,42.805,6.029,13.2998,4.60009,2470.063,2020-2-28T13:43:42Z
2020-02-28T11:46:09Z,42.805,6.029,13.2978,4.60011,2470.063,2020-2-28T13:46:45Z
2020-02-28T11:49:12Z,42.805,6.029,13.2979,4.60011,2470.063,2020-2-28T13:49:48Z
2020-02-28T11:52:15Z,42.805,6.029,13.2974,4.60013,2470.077,2020-2-28T13:52:51Z
2020-02-28T11:55:18Z,42.805,6.029,13.2983,4.59990,2470.053,2020-2-28T13:55:54Z
2020-02-28T11:58:22Z,42.805,6.029,13.2977,4.59985,2470.077,2020-2-28T13:58:58Z
2020-02-28T12:01:25Z,42.805,6.029,13.2980,4.59989,2470.077,2020-2-28T14:02:01Z
2020-02-28T12:04:28Z,42.805,6.029,13.2973,4.59993,2470.04,2020-2-28T14:05:04Z
2020-02-28T12:07:31Z,42.805,6.029,13.2979,4.59995,2470.077,2020-2-28T14:08:07Z
2020-02-28T12:10:35Z,42.805,6.029,13.2992,4.60001,2470.077,2020-2-28T14:11:11Z
2020-02-28T12:13:38Z,42.805,6.029,13.2972,4.60002,2470.04,2020-2-28T14:14:14Z
2020-02-28T12:16:41Z,42.805,6.029,13.2971,4.59996,2470.053,2020-2-28T14:17:17Z
2020-02-28T12:19:44Z,42.805,6.029,13.2987,4.60018,2470.077,2020-2-28T14:20:20Z
2020-02-28T12:22:48Z,42.805,6.029,13.2984,4.60012,2470.017,2020-2-28T14:23:23Z
2020-02-28T12:25:51Z,42.805,6.029,13.2973,4.59990,2470.04,2020-2-28T14:26:27Z
2020-02-28T12:28:54Z,42.805,6.029,13.2971,4.60006,2470.053,2020-2-28T14:29:30Z
2020-02-28T12:31:57Z,42.805,6.029,13.2976,4.60011,2470.003,2020-2-28T14:32:33Z
2020-02-28T12:35:00Z,42.805,6.029,13.2986,4.59991,2470.04,2020-2-28T14:35:36Z
2020-02-28T12:38:04Z,42.805,6.029,13.2976,4.59994,2470.077,2020-2-28T14:38:40Z
2020-02-28T12:41:07Z,42.805,6.029,13.2983,4.59996,2469.993,2020-2-28T14:41:43Z
2020-02-28T12:44:10Z,42.805,6.029,13.2986,4.59995,2469.993,2020-2-28T14:44:46Z
2020-02-28T12:47:13Z,42.805,6.029,13.2982,4.60018,2470.017,2020-2-28T14:47:49Z
2020-02-28T12:50:17Z,42.805,6.029,13.2974,4.60023,2470.017,2020-2-28T14:50:52Z
2020-02-28T12:53:20Z,42.805,6.029,13.2991,4.60038,2470.053,2020-2-28T14:53:56Z
2020-02-28T12:56:23Z,42.805,6.029,13.2990,4.60032,2470.053,2020-2-28T14:56:59Z
2020-02-28T12:59:26Z,42.805,6.029,13.2996,4.60024,2469.97,2020-2-28T15:00:02Z
2020-02-28T13:02:29Z,42.805,6.029,13.2994,4.60011,2470.03,2020-2-28T15:03:05Z
2020-02-28T13:05:33Z,42.805,6.029,13.3001,4.60024,2470.03,2020-2-28T15:06:09Z
2020-02-28T13:08:36Z,42.805,6.029,13.2991,4.60024,2469.993,2020-2-28T15:09:12Z
2020-02-28T13:11:39Z,42.805,6.029,13.2983,4.60017,2470.017,2020-2-28T15:12:15Z
2020-02-28T13:14:42Z,42.805,6.029,13.2990,4.60022,2469.993,2020-2-28T15:15:18Z
2020-02-28T13:17:45Z,42.805,6.029,13.3017,4.60015,2469.984,2020-2-28T15:18:21Z
2020-02-28T13:20:49Z,42.805,6.029,13.3001,4.60029,2470.03,2020-2-28T15:21:25Z
2020-02-28T13:23:52Z,42.805,6.029,13.2975,4.60004,2470.007,2020-2-28T15:24:28Z
2020-02-28T13:26:55Z,42.805,6.029,13.2975,4.60010,2469.993,2020-2-28T15:27:31Z
2020-02-28T13:29:58Z,42.805,6.029,13.2981,4.60011,2470.053,2020-2-28T15:30:34Z
2020-02-28T13:33:02Z,42.805,6.029,13.2976,4.60009,2470.007,2020-2-28T15:33:37Z
2020-02-28T13:36:05Z,42.805,6.029,13.2969,4.60000,2470.017,2020-2-28T15:36:41Z
2020-02-28T13:39:08Z,42.805,6.029,13.2982,4.60023,2469.993,2020-2-28T15:39:44Z
2020-02-28T13:42:11Z,42.805,6.029,13.3004,4.60020,2469.984,2020-2-28T15:42:47Z
2020-02-28T13:45:15Z,42.805,6.029,13.2977,4.60024,2470.007,2020-2-28T15:45:50Z
2020-02-28T13:48:18Z,42.805,6.029,13.2976,4.60006,2469.97,2020-2-28T15:48:54Z
2020-02-28T13:51:21Z,42.805,6.029,13.2981,4.60014,2470.017,2020-2-28T15:51:57Z
2020-02-28T13:54:24Z,42.805,6.029,13.2982,4.59995,2470.007,2020-2-28T15:55:00Z
2020-02-28T13:57:27Z,42.805,6.029,13.2973,4.60012,2469.993,2020-2-28T15:58:03Z
2020-02-28T14:00:31Z,42.805,6.029,13.2984,4.60017,2469.984,2020-2-28T16:01:07Z
2020-02-28T14:03:34Z,42.805,6.029,13.2978,4.60015,2469.993,2020-2-28T16:04:10Z
2020-02-28T14:06:37Z,42.805,6.029,13.2999,4.60044,2469.984,2020-2-28T16:07:13Z
2020-02-28T14:09:40Z,42.805,6.029,13.2999,4.60052,2469.993,2020-2-28T16:10:16Z
2020-02-28T14:12:44Z,42.805,6.029,13.3015,4.60028,2469.97,2020-2-28T16:13:19Z
2020-02-28T14:15:47Z,42.805,6.029,13.3005,4.60008,2469.993,2020-2-28T16:16:23Z
2020-02-28T14:18:50Z,42.805,6.029,13.2985,4.59993,2469.947,2020-2-28T16:19:26Z
2020-02-28T14:21:53Z,42.805,6.029,13.2984,4.60011,2470.007,2020-2-28T16:22:29Z
2020-02-28T14:24:56Z,42.805,6.029,13.3009,4.60029,2469.984,2020-2-28T16:25:32Z
2020-02-28T14:28:00Z,42.805,6.029,13.2989,4.60049,2469.97,2020-2-28T16:28:35Z
2020-02-28T14:31:03Z,42.805,6.029,13.3000,4.60047,2469.984,2020-2-28T16:31:39Z
2020-02-28T14:34:06Z,42.805,6.029,13.2986,4.60049,2469.96,2020-2-28T16:34:42Z
2020-02-28T14:37:09Z,42.805,6.029,13.2996,4.60091,2469.947,2020-2-28T16:37:45Z
2020-02-28T14:40:13Z,42.805,6.029,13.2991,4.60043,2469.96,2020-2-28T16:40:48Z
2020-02-28T14:43:16Z,42.805,6.029,13.2994,4.60036,2469.97,2020-2-28T16:43:52Z
2020-02-28T14:46:19Z,42.805,6.029,13.3009,4.60026,2469.947,2020-2-28T16:46:55Z
2020-02-28T14:49:22Z,42.805,6.029,13.3018,4.60027,2469.96,2020-2-28T16:49:58Z
2020-02-28T14:52:25Z,42.805,6.029,13.2980,4.60033,2469.97,2020-2-28T16:53:01Z
2020-02-28T14:55:29Z,42.805,6.029,13.3015,4.60078,2469.914,2020-2-28T16:56:05Z
2020-02-28T14:58:32Z,42.805,6.029,13.3026,4.60032,2469.947,2020-2-28T16:59:08Z
2020-02-28T15:01:36Z,42.805,6.029,13.3012,4.60067,2469.96,2020-2-28T17:02:12Z
2020-02-28T15:04:39Z,42.805,6.029,13.3030,4.60028,2469.937,2020-2-28T17:05:15Z
2020-02-28T15:07:42Z,42.805,6.029,13.3036,4.60006,2469.923,2020-2-28T17:08:18Z
2020-02-28T15:10:45Z,42.805,6.029,13.2986,4.60034,2469.984,2020-2-28T17:11:21Z
2020-02-28T15:13:49Z,42.805,6.029,13.2987,4.60058,2469.984,2020-2-28T17:14:24Z